WXM80 ListenWXM80 Stop

You find our weather info also at:

UK Metoffice

WeatherCloud

Weather Underground

Northeastern Weather Network

AWEKAS

Citizen Weather Observer Program (CWOP)

HAMweather, WeatherForYou, PWS Weather


Weather Underground History page Text

Daily Summary for January 30, 2018 Units:  Metric    English   Both
« Previous Day
Next Day »
Daily Weekly Monthly Yearly Custom
  High: Low: Average:
Temperature: -17.8 °C -3.3 °C -0.4 °C
Dew Point: -17.8 °C -7.6 °C -2.4 °C
Humidity: Humidity % 72 % 86 %
Wind Speed: 0 km/h 0 km/h 7.2 km/h
Wind Gust: 0 km/h - -
Wind:- - SSW
Pressure: 0 hPa 1004.3 hPa -
Precipitation: 1.27 mm    
Historical Graphs
 
 
Tabular Data for January 30, 2018
Time Temperature Dew Point Pressure Wind Wind Speed Wind Gust Humidity Rainfall Rate (Hourly)
-17.8 °C -17.8 °C 0 hPa Calm     Humidity % 0 mm
00:00 0.2 °C -2.7 °C 1007.3 hPa NNE 11.1 km/h 22.2 km/h 81 % 0 mm
00:06 0.1 °C -2.8 °C 1007.3 hPa NE 8 km/h 22.5 km/h 81 % 0 mm
00:11 0.1 °C -2.6 °C 1007.3 hPa NE 14.5 km/h 25.7 km/h 82 % 0 mm
00:16 0 °C -2.7 °C 1007.3 hPa ENE 11.9 km/h 20.4 km/h 82 % 0 mm
00:21 0 °C -2.9 °C 1007.3 hPa NE 10.5 km/h 18.5 km/h 81 % 0 mm
00:26 0 °C -2.9 °C 1007.3 hPa NNE 12.2 km/h 18.5 km/h 81 % 0 mm
00:31 0 °C -2.9 °C 1007.3 hPa NNE 8.5 km/h 14.8 km/h 81 % 0 mm
00:36 0 °C -2.7 °C 1007.3 hPa NE 10.3 km/h 18.5 km/h 82 % 0 mm
00:41 0 °C -2.6 °C 1007.3 hPa North 10.1 km/h 18.5 km/h 83 % 0 mm
00:46 -0.1 °C -2.5 °C 1007.3 hPa NNE 11.4 km/h 18.5 km/h 84 % 0 mm
00:51 -0.2 °C -2.4 °C 1007 hPa NNE 7.2 km/h 17.7 km/h 85 % 0 mm
00:56 -0.3 °C -2.3 °C 1007 hPa NNE 10.3 km/h 18.5 km/h 86 % 0 mm
01:01 -0.3 °C -2.2 °C 1007 hPa NNE 10.9 km/h 16.7 km/h 87 % 0 mm
01:06 -0.4 °C -2.3 °C 1007 hPa North 12.7 km/h 18.5 km/h 87 % 0 mm
01:11 -0.6 °C -2.3 °C 1007 hPa NE 10.9 km/h 18.5 km/h 88 % 0 mm
01:16 -0.6 °C -2.2 °C 1007 hPa North 11.3 km/h 16.1 km/h 89 % 0 mm
01:21 -0.7 °C -2.1 °C 1007.3 hPa NE 8.7 km/h 18.5 km/h 90 % 0 mm
01:26 -0.7 °C -2.2 °C 1007 hPa NNE 13 km/h 18.5 km/h 90 % 0 mm
01:31 -0.8 °C -2.1 °C 1006.7 hPa NNE 9.2 km/h 14.8 km/h 91 % 0 mm
01:37 -0.8 °C -2.1 °C 1007 hPa NNE 8.5 km/h 11.1 km/h 91 % 0 mm
01:42 -0.9 °C -2.2 °C 1006.7 hPa NNE 12.2 km/h 20.4 km/h 91 % 0 mm
01:47 -1 °C -2.1 °C 1006.7 hPa NNE 9.5 km/h 16.7 km/h 92 % 0 mm
01:52 -1.1 °C -2.2 °C 1006.7 hPa NNE 10 km/h 18.5 km/h 92 % 0 mm
01:57 -1.2 °C -2.3 °C 1006.7 hPa NNE 10.6 km/h 18.5 km/h 92 % 0 mm
02:02 -1.2 °C -2.2 °C 1006.7 hPa NNE 11.3 km/h 13 km/h 93 % 0 mm
02:07 -1.2 °C -2.2 °C 1006.3 hPa NNE 9.2 km/h 18.5 km/h 93 % 0 mm
02:12 -1.2 °C -2.2 °C 1006 hPa NNE 10.3 km/h 18.5 km/h 93 % 0 mm
02:17 -1.3 °C -2.3 °C 1006.3 hPa NE 12.2 km/h 18.5 km/h 93 % 0 mm
02:22 -1.3 °C -2.1 °C 1006.3 hPa North 9.2 km/h 9.7 km/h 94 % 0 mm
02:27 -1.3 °C -2.1 °C 1006.3 hPa NNE 11.4 km/h 14.8 km/h 94 % 0 mm
02:32 -1.3 °C -2.2 °C 1006 hPa NE 12.1 km/h 20.4 km/h 94 % 0 mm
02:37 -1.4 °C -2.2 °C 1006.3 hPa NE 11.4 km/h 18.5 km/h 94 % 0 mm
02:42 -1.4 °C -2.3 °C 1006.3 hPa NNE 10.9 km/h 16.7 km/h 94 % 0 mm
02:47 -1.4 °C -2.3 °C 1006.7 hPa NNE 8 km/h 12.9 km/h 94 % 0 mm
02:52 -1.4 °C -2.3 °C 1006.7 hPa NNE 10.3 km/h 13 km/h 94 % 0 mm
02:57 -1.4 °C -2.3 °C 1006.3 hPa North 6.6 km/h 14.8 km/h 94 % 0 mm
03:02 -1.4 °C -2.3 °C 1006.3 hPa NNE 10.9 km/h 16.7 km/h 94 % 0 mm
03:08 -1.4 °C -2.3 °C 1006 hPa NNE 11.1 km/h 14.5 km/h 94 % 0 mm
03:13 -1.5 °C -2.3 °C 1006.3 hPa NNE 6.8 km/h 16.7 km/h 94 % 0 mm
03:18 -1.5 °C -2.3 °C 1006.3 hPa North 8.5 km/h 16.7 km/h 94 % 0 mm
03:23 -1.5 °C -2.5 °C 1006.3 hPa NNE 15.9 km/h 20.4 km/h 93 % 0 mm
03:28 -1.5 °C -2.5 °C 1006.7 hPa NNE 9.3 km/h 19.3 km/h 93 % 0 mm
03:33 -1.6 °C -2.6 °C 1006.7 hPa NNE 7.1 km/h 14.5 km/h 93 % 0 mm
03:38 -1.6 °C -2.6 °C 1006.3 hPa NNW 8.2 km/h 13 km/h 93 % 0 mm
03:43 -1.6 °C -2.6 °C 1006.3 hPa NE 9.7 km/h 14.8 km/h 93 % 0 mm
03:48 -1.6 °C -2.6 °C 1006.3 hPa North 8.2 km/h 14.8 km/h 93 % 0 mm
03:53 -1.6 °C -2.6 °C 1006.3 hPa NNE 10.5 km/h 14.8 km/h 93 % 0 mm
03:58 -1.6 °C -2.6 °C 1006.3 hPa North 8.9 km/h 13 km/h 93 % 0 mm
04:03 -1.6 °C -2.6 °C 1006.3 hPa NNW 6.3 km/h 11.1 km/h 93 % 0 mm
04:08 -1.6 °C -2.6 °C 1006.7 hPa North 7.7 km/h 9.3 km/h 93 % 0 mm
04:13 -1.6 °C -2.6 °C 1006.3 hPa North 6.8 km/h 11.1 km/h 93 % 0 mm
04:18 -1.6 °C -2.6 °C 1006 hPa NNE 9.5 km/h 11.3 km/h 93 % 0 mm
04:23 -1.6 °C -2.4 °C 1006 hPa NNE 9.7 km/h 14.5 km/h 94 % 0 mm
04:29 -1.6 °C -2.4 °C 1006.3 hPa NNE 6.8 km/h 9.3 km/h 94 % 0 mm
04:34 -1.6 °C -2.4 °C 1006.3 hPa North 6 km/h 9.7 km/h 94 % 0 mm
04:39 -1.6 °C -2.4 °C 1006.3 hPa North 9.7 km/h 18.5 km/h 94 % 0 mm
04:44 -1.6 °C -2.4 °C 1006.3 hPa NE 8.7 km/h 13 km/h 94 % 0 mm
04:49 -1.6 °C -2.4 °C 1006.3 hPa NNE 8.2 km/h 13 km/h 94 % 0 mm
04:54 -1.6 °C -2.4 °C 1006.3 hPa NNE 6 km/h 9.7 km/h 94 % 0 mm
04:59 -1.6 °C -2.4 °C 1006.3 hPa NNE 6 km/h 11.1 km/h 94 % 0 mm
05:04 -1.6 °C -2.4 °C 1006.3 hPa NNE 5 km/h 13 km/h 94 % 0 mm
05:09 -1.6 °C -2.4 °C 1006.7 hPa North 4.7 km/h 6.4 km/h 94 % 0 mm
05:14 -1.6 °C -2.4 °C 1006.7 hPa North 5.8 km/h 9.3 km/h 94 % 0 mm
05:19 -1.6 °C -2.4 °C 1006.7 hPa North 1.1 km/h 5.6 km/h 94 % 0 mm
05:24 -1.6 °C -2.4 °C 1006.7 hPa North 5 km/h 7.4 km/h 94 % 0.25 mm
05:29 -1.5 °C -2.2 °C 1006.7 hPa NE 5.6 km/h 11.1 km/h 95 % 0.25 mm
05:34 -1.5 °C -2.2 °C 1006.7 hPa NNE 6.1 km/h 9.7 km/h 95 % 0.25 mm
05:39 -1.5 °C -2.2 °C 1006.7 hPa North 3.9 km/h 9.7 km/h 95 % 0.25 mm
05:44 -1.5 °C -2.2 °C 1006.7 hPa NNW 6.4 km/h 9.7 km/h 95 % 0.25 mm
05:49 -1.4 °C -2.2 °C 1006.7 hPa NNE 4.3 km/h 11.1 km/h 95 % 0.51 mm
05:54 -1.4 °C -2.2 °C 1006.7 hPa NNE 4.3 km/h 11.1 km/h 95 % 0.51 mm
06:00 -1.4 °C -2.1 °C 1006.7 hPa North 1.6 km/h 5.6 km/h 95 % 0.51 mm
06:05 -1.4 °C -2.1 °C 1006.7 hPa North 6.9 km/h 7.4 km/h 95 % 0.51 mm
06:10 -1.4 °C -2.1 °C 1006.7 hPa NNW 7.1 km/h 9.3 km/h 95 % 0.51 mm
06:15 -1.4 °C -2.1 °C 1007 hPa North 8.5 km/h 13 km/h 95 % 0.76 mm
06:20 -1.4 °C -2.1 °C 1006.7 hPa North 7.9 km/h 13 km/h 95 % 0.76 mm
06:25 -1.4 °C -2.1 °C 1006.7 hPa NNE 8.4 km/h 13 km/h 95 % 0.51 mm
06:30 -1.4 °C -2.1 °C 1006.7 hPa North 9.8 km/h 13 km/h 95 % 0.51 mm
06:35 -1.4 °C -2.2 °C 1006.7 hPa NNW 6.3 km/h 11.1 km/h 95 % 0.51 mm
06:40 -1.4 °C -2.2 °C 1007 hPa NNE 6.6 km/h 8 km/h 95 % 0.51 mm
06:45 -1.4 °C -2.2 °C 1007 hPa NNW 5 km/h 11.1 km/h 95 % 0.51 mm
06:50 -1.4 °C -2.1 °C 1007 hPa North 3.9 km/h 6.4 km/h 95 % 0.25 mm
06:55 -1.4 °C -2.1 °C 1007 hPa NNE 6.8 km/h 11.1 km/h 95 % 0.25 mm
07:00 -1.4 °C -2.2 °C 1007 hPa North 8.2 km/h 11.1 km/h 95 % 0.25 mm
07:04 -1.4 °C -2.2 °C 1007 hPa North 8.5 km/h 13 km/h 95 % 0.25 mm
07:09 -1.5 °C -2.2 °C 1006.7 hPa North 6.1 km/h 7.4 km/h 95 % 0.25 mm
07:14 -1.4 °C -2.2 °C 1007 hPa NE 9.2 km/h 11.3 km/h 95 % 0.25 mm
07:20 -1.5 °C -2.2 °C 1006.7 hPa NNE 6.3 km/h 9.3 km/h 95 % 0.25 mm
07:25 -1.5 °C -2.2 °C 1007 hPa North 7.7 km/h 11.1 km/h 95 % 0.25 mm
07:30 -1.5 °C -2.2 °C 1007 hPa North 10.9 km/h 14.8 km/h 95 % 0.25 mm
07:35 -1.6 °C -2.3 °C 1006.7 hPa NNE 5.8 km/h 11.1 km/h 95 % 0.25 mm
07:40 -1.6 °C -2.3 °C 1006.7 hPa NNE 5.1 km/h 9.3 km/h 95 % 0.25 mm
07:45 -1.5 °C -2.2 °C 1006.7 hPa NNE 7.9 km/h 16.7 km/h 95 % 0.25 mm
07:50 -1.5 °C -2.2 °C 1006.7 hPa NNE 9 km/h 13 km/h 95 % 0.25 mm
07:55 -1.5 °C -2.2 °C 1006.7 hPa North 6.9 km/h 9.3 km/h 95 % 0.25 mm
08:00 -1.5 °C -2.2 °C 1006.7 hPa NNE 8.4 km/h 13 km/h 95 % 0.51 mm
08:05 -1.5 °C -2.2 °C 1006.7 hPa North 9.2 km/h 13 km/h 95 % 0.51 mm
08:10 -1.6 °C -2.3 °C 1006.7 hPa NNE 9.7 km/h 14.5 km/h 95 % 0.51 mm
08:15 -1.6 °C -2.3 °C 1006.7 hPa North 4.7 km/h 11.1 km/h 95 % 0.51 mm
08:20 -1.5 °C -2.2 °C 1007 hPa NNE 9.2 km/h 13 km/h 95 % 0.25 mm
08:25 -1.4 °C -2.2 °C 1006.7 hPa NNE 5.5 km/h 11.1 km/h 95 % 0.25 mm
08:30 -1.4 °C -2.2 °C 1006.7 hPa NNE 8.7 km/h 11.1 km/h 95 % 0.25 mm
08:35 -1.4 °C -2.1 °C 1007 hPa North 9 km/h 14.8 km/h 95 % 0.25 mm
08:40 -1.4 °C -2.1 °C 1006.7 hPa NNE 4.8 km/h 9.3 km/h 95 % 0.25 mm
08:46 -1.3 °C -2.1 °C 1006.7 hPa North 5.3 km/h 9.3 km/h 95 % 0.25 mm
08:51 -1.3 °C -2 °C 1006.7 hPa NNE 4.8 km/h 11.3 km/h 95 % 0 mm
08:56 -1.2 °C -1.9 °C 1006.7 hPa NNE 4.8 km/h 9.7 km/h 95 % 0 mm
09:00 -1.2 °C -1.9 °C 1006.7 hPa NNE 5.8 km/h 9.3 km/h 95 % 0 mm
09:06 -1.2 °C -1.9 °C 1006.7 hPa NNE 8 km/h 12.9 km/h 95 % 0 mm
09:11 -1.2 °C -1.9 °C 1006.7 hPa NNE 4.8 km/h 11.3 km/h 95 % 0 mm
09:16 -1.1 °C -1.8 °C 1006.7 hPa NNE 8 km/h 11.3 km/h 95 % 0 mm
09:21 -1.1 °C -1.8 °C 1006.7 hPa NNE 4.8 km/h 11.3 km/h 95 % 0 mm
09:26 -1.1 °C -1.8 °C 1006.7 hPa NNE 4.8 km/h 9.7 km/h 95 % 0 mm
09:31 -1.1 °C -1.9 °C 1006.7 hPa NNE 3.2 km/h 14.5 km/h 94 % 0 mm
09:36 -1.1 °C -1.9 °C 1006.7 hPa NNE 4.8 km/h 11.3 km/h 94 % 0 mm
09:41 -1.1 °C -1.9 °C 1006.7 hPa NNE 4.8 km/h 11.3 km/h 94 % 0 mm
09:46 -1 °C -1.8 °C 1006.7 hPa NNE 1.6 km/h 6.4 km/h 94 % 0 mm
09:51 -0.9 °C -1.7 °C 1006.7 hPa NNE 4.8 km/h 9.7 km/h 94 % 0 mm
09:56 -0.8 °C -1.7 °C 1006.7 hPa NNE 3.2 km/h 8 km/h 94 % 0 mm
10:01 -0.8 °C -1.6 °C 1006.3 hPa NNE 6.9 km/h 9.7 km/h 94 % 0 mm
10:06 -0.7 °C -1.6 °C 1006.3 hPa NNE 3.4 km/h 7.4 km/h 94 % 0 mm
10:11 -0.7 °C -1.5 °C 1006.3 hPa NNE 3.9 km/h 6.4 km/h 94 % 0 mm
10:16 -0.6 °C -1.4 °C 1006.7 hPa NNE 4.5 km/h 9.3 km/h 94 % 0 mm
10:21 -0.4 °C -1.3 °C 1006.3 hPa NNE 3.1 km/h 5.6 km/h 94 % 0 mm
10:26 -0.3 °C -1.1 °C 1006.7 hPa NNE 1.8 km/h 5.6 km/h 94 % 0 mm
10:31 -0.2 °C -1 °C 1006.7 hPa North 3.2 km/h 4.8 km/h 94 % 0 mm
10:36 0 °C -0.8 °C 1006.3 hPa North 1.6 km/h 3.7 km/h 94 % 0 mm
10:41 0.1 °C -0.7 °C 1006.7 hPa North 3.4 km/h 5.6 km/h 94 % 0 mm
10:46 0.3 °C -0.6 °C 1006.7 hPa NNW 2.4 km/h 3.7 km/h 94 % 0 mm
10:51 0.4 °C -0.4 °C 1006.3 hPa NW 2.6 km/h 3.7 km/h 94 % 0 mm
10:56 0.6 °C -0.3 °C 1006.3 hPa NW 2.1 km/h 4.8 km/h 94 % 0 mm
11:01 0.7 °C -0.3 °C 1006.3 hPa NNW 1 km/h 5.6 km/h 93 % 0 mm
11:06 0.9 °C -0.1 °C 1006.3 hPa WNW 2.6 km/h 7.4 km/h 93 % 0 mm
11:11 1.1 °C -0.1 °C 1006.3 hPa WNW 3.5 km/h 5.6 km/h 92 % 0 mm
11:16 1.2 °C -0.2 °C 1006.3 hPa NW 2.7 km/h 5.6 km/h 91 % 0 mm
11:21 1.2 °C -0.1 °C 1006.3 hPa NW 1.9 km/h 5.6 km/h 91 % 0 mm
11:27 1.3 °C -0.1 °C 1006 hPa NW 3.7 km/h 7.4 km/h 90 % 0 mm
11:32 1.4 °C -0.2 °C 1006 hPa NW 1.1 km/h 5.6 km/h 89 % 0 mm
11:37 1.5 °C -0.1 °C 1006 hPa NW 0.8 km/h 5.6 km/h 89 % 0 mm
11:42 1.6 °C -0.1 °C 1006 hPa NW 3.9 km/h 5.6 km/h 89 % 0 mm
11:47 1.7 °C -0.1 °C 1005.6 hPa NW 3.1 km/h 5.6 km/h 88 % 0 mm
11:52 1.7 °C -0.1 °C 1006 hPa WNW 4.3 km/h 7.4 km/h 88 % 0 mm
11:57 1.7 °C -0.3 °C 1005.6 hPa WNW 3.1 km/h 5.6 km/h 87 % 0 mm
12:02 1.7 °C -0.2 °C 1005.6 hPa West 2.4 km/h 5.6 km/h 87 % 0 mm
12:07 1.8 °C -0.1 °C 1005.6 hPa WNW 5.5 km/h 8 km/h 87 % 0 mm
12:12 1.9 °C -0.2 °C 1005.3 hPa NNW 0.2 km/h 3.7 km/h 86 % 0 mm
12:17 2 °C -0.1 °C 1005.3 hPa NW 1.1 km/h 5.6 km/h 86 % 0 mm
12:22 2.1 °C -0.1 °C 1005 hPa West 3.4 km/h 6.4 km/h 86 % 0 mm
12:27 2.1 °C -0.2 °C 1005 hPa WNW 3.9 km/h 5.6 km/h 85 % 0 mm
12:32 2.2 °C -0.1 °C 1005 hPa West 0.5 km/h 1.9 km/h 85 % 0 mm
12:37 2.3 °C -0.1 °C 1005 hPa Calm   1.9 km/h 84 % 0 mm
12:42 2.4 °C -0.2 °C 1005 hPa WNW 1.1 km/h 7.4 km/h 83 % 0 mm
12:47 2.5 °C -0.1 °C 1005 hPa WSW 3.7 km/h 8 km/h 83 % 0 mm
12:52 2.5 °C -0.3 °C 1005 hPa West 2.6 km/h 5.6 km/h 82 % 0 mm
12:57 2.6 °C -0.2 °C 1005 hPa West 0.8 km/h 5.6 km/h 82 % 0 mm
13:02 2.6 °C 0 °C 1004.6 hPa NW 3.4 km/h 5.6 km/h 83 % 0 mm
13:08 2.6 °C -0.1 °C 1004.6 hPa NW 0.3 km/h 1.9 km/h 83 % 0 mm
13:12 2.6 °C -0.1 °C 1004.6 hPa NNW 3.1 km/h 5.6 km/h 83 % 0 mm
13:18 2.5 °C -0.1 °C 1004.6 hPa West 5 km/h 8 km/h 83 % 0 mm
13:23 2.4 °C -0.2 °C 1004.6 hPa West 1.3 km/h 5.6 km/h 83 % 0 mm
13:28 2.4 °C 0 °C 1004.6 hPa NW 8 km/h 11.3 km/h 84 % 0 mm
13:33 2.3 °C -0.3 °C 1004.6 hPa WNW 5 km/h 11.1 km/h 83 % 0 mm
13:38 2.3 °C -0.3 °C 1004.6 hPa NW 3.1 km/h 5.6 km/h 83 % 0 mm
13:43 2.3 °C -0.3 °C 1004.3 hPa WNW 4.3 km/h 9.3 km/h 83 % 0 mm
13:48 2.4 °C -0.1 °C 1004.6 hPa WNW 4.5 km/h 7.4 km/h 84 % 0 mm
13:53 2.4 °C 0 °C 1004.6 hPa WNW 4.5 km/h 11.1 km/h 84 % 0 mm
13:58 2.4 °C 0 °C 1004.6 hPa NW 2.9 km/h 6.4 km/h 84 % 0 mm
14:03 2.5 °C -0.1 °C 1004.3 hPa WSW 4.2 km/h 11.1 km/h 83 % 0 mm
14:08 2.5 °C -0.1 °C 1004.3 hPa West 4.5 km/h 5.6 km/h 83 % 0 mm
14:13 2.6 °C -0.1 °C 1004.3 hPa NNW 3.5 km/h 11.3 km/h 83 % 0 mm
14:18 2.6 °C 0 °C 1004.3 hPa NW 4.2 km/h 7.4 km/h 83 % 0 mm
14:23 2.6 °C -0.2 °C 1004.3 hPa WNW 6.8 km/h 11.3 km/h 82 % 0 mm
14:28 2.7 °C -0.1 °C 1004.3 hPa WNW 6.4 km/h 11.1 km/h 82 % 0 mm
14:33 2.7 °C 0.1 °C 1004.3 hPa NW 0.5 km/h 5.6 km/h 83 % 0 mm
14:38 2.8 °C 0 °C 1004.3 hPa WNW 2.1 km/h 5.6 km/h 82 % 0 mm
14:43 2.8 °C 0.1 °C 1004.3 hPa NW 7.4 km/h 7.4 km/h 82 % 0 mm
14:48 2.8 °C -0.1 °C 1004.3 hPa NNW 2.3 km/h 14.8 km/h 81 % 0 mm
14:53 2.9 °C -0.1 °C 1004.6 hPa NW 4.7 km/h 5.6 km/h 81 % 0 mm
14:59 2.8 °C -0.1 °C 1004.6 hPa NW 6.9 km/h 9.3 km/h 81 % 0 mm
15:04 2.8 °C -0.2 °C 1004.6 hPa NW 4.5 km/h 11.1 km/h 81 % 0 mm
15:09 2.7 °C -0.2 °C 1004.3 hPa WNW 2.3 km/h 9.3 km/h 81 % 0 mm
15:14 2.7 °C -0.1 °C 1004.6 hPa North 5.6 km/h 7.4 km/h 82 % 0 mm
15:19 2.5 °C -0.3 °C 1004.6 hPa NNW 2.4 km/h 5.6 km/h 82 % 0 mm
15:24 2.4 °C -0.2 °C 1004.6 hPa WNW 3.4 km/h 7.4 km/h 83 % 0 mm
15:29 2.3 °C -0.3 °C 1005 hPa NW 2.3 km/h 8 km/h 83 % 0 mm
15:34 2.3 °C -0.3 °C 1005 hPa NW 2.1 km/h 9.3 km/h 83 % 0 mm
15:39 2.2 °C -0.2 °C 1004.6 hPa NW 6.4 km/h 16.7 km/h 84 % 0 mm
15:44 2.2 °C -0.3 °C 1005 hPa NW 4.2 km/h 9.3 km/h 84 % 0 mm
15:49 2.1 °C -0.4 °C 1005 hPa North 4.5 km/h 8 km/h 84 % 0 mm
15:54 2 °C -0.4 °C 1005 hPa NNW 7.9 km/h 13 km/h 84 % 0 mm
15:59 1.9 °C -0.3 °C 1005 hPa NNW 6.9 km/h 12.9 km/h 85 % 0 mm
16:05 1.9 °C -0.4 °C 1005 hPa North 5.1 km/h 9.3 km/h 85 % 0 mm
16:10 1.8 °C -0.5 °C 1005.3 hPa NNW 6.4 km/h 14.8 km/h 85 % 0 mm
16:15 1.7 °C -0.6 °C 1005.3 hPa NW 2.3 km/h 7.4 km/h 85 % 0 mm
16:20 1.7 °C -0.4 °C 1005.6 hPa NNW 3.7 km/h 13 km/h 86 % 0 mm
16:25 1.6 °C -0.5 °C 1005.6 hPa NNW 6.3 km/h 9.7 km/h 86 % 0 mm
16:30 1.6 °C -0.6 °C 1005.3 hPa NW 5.5 km/h 9.3 km/h 86 % 0 mm
16:35 1.5 °C -0.6 °C 1005.6 hPa NW 5 km/h 5.6 km/h 86 % 0 mm
16:40 1.4 °C -0.7 °C 1005.6 hPa NNW 2.6 km/h 13 km/h 86 % 0 mm
16:45 1.4 °C -0.7 °C 1005.6 hPa NNW 4.5 km/h 7.4 km/h 86 % 0 mm
16:50 1.4 °C -0.7 °C 1005.6 hPa NNW 3.4 km/h 7.4 km/h 86 % 0 mm
16:55 1.3 °C -0.8 °C 1006 hPa WNW 4.7 km/h 11.1 km/h 86 % 0 mm
17:00 1.3 °C -0.8 °C 1006.3 hPa West 4.2 km/h 16.7 km/h 86 % 0 mm
17:06 1.3 °C -0.9 °C 1006.3 hPa WNW 9.7 km/h 19.3 km/h 85 % 0 mm
17:11 1.2 °C -1.1 °C 1006.3 hPa WNW 9.7 km/h 19.3 km/h 85 % 0 mm
17:16 1.1 °C -1.3 °C 1006.3 hPa WNW 8 km/h 22.5 km/h 84 % 0 mm
17:21 1 °C -1.6 °C 1006.7 hPa WNW 6.9 km/h 11.3 km/h 83 % 0 mm
17:26 0.9 °C -1.6 °C 1006.7 hPa WNW 4.8 km/h 16.1 km/h 83 % 0 mm
17:31 0.9 °C -1.6 °C 1006.7 hPa WNW 8 km/h 16.1 km/h 83 % 0 mm
17:36 0.8 °C -1.7 °C 1007 hPa WNW 9.7 km/h 16.1 km/h 83 % 0 mm
17:41 0.8 °C -1.7 °C 1007 hPa WNW 4.8 km/h 19.3 km/h 83 % 0 mm
17:46 0.8 °C -1.6 °C 1007 hPa WNW 8 km/h 19.3 km/h 84 % 0 mm
17:51 0.8 °C -1.6 °C 1007.3 hPa WNW 8 km/h 12.9 km/h 84 % 0 mm
17:56 0.8 °C -1.6 °C 1007.3 hPa WNW 8 km/h 14.5 km/h 84 % 0 mm
18:01 0.8 °C -1.6 °C 1007.3 hPa WNW 11.1 km/h 25.9 km/h 84 % 0 mm
18:06 0.8 °C -1.6 °C 1007.7 hPa NW 4.8 km/h 11.1 km/h 84 % 0 mm
18:11 0.7 °C -1.8 °C 1007.7 hPa WSW 10.8 km/h 25.9 km/h 83 % 0 mm
18:16 0.7 °C -2.1 °C 1007.7 hPa WNW 10.8 km/h 18.5 km/h 82 % 0 mm
18:21 0.6 °C -2.3 °C 1008 hPa NW 4.5 km/h 11.1 km/h 81 % 0 mm
18:26 0.5 °C -2.4 °C 1008 hPa NW 10.8 km/h 22.5 km/h 81 % 0 mm
18:31 0.4 °C -2.7 °C 1008.4 hPa WSW 12.7 km/h 22.2 km/h 80 % 0 mm
18:36 0.3 °C -2.8 °C 1008.7 hPa WNW 12.4 km/h 20.4 km/h 80 % 0 mm
18:41 0.1 °C -3.3 °C 1008.7 hPa West 15 km/h 29.6 km/h 78 % 0 mm
18:46 0 °C -3.4 °C 1008.7 hPa WNW 6.6 km/h 13 km/h 78 % 0 mm
18:51 -0.1 °C -3.7 °C 1008.7 hPa NNW 2.9 km/h 18.5 km/h 77 % 0 mm
18:56 -0.2 °C -3.8 °C 1008.7 hPa NNW 12.9 km/h 25.9 km/h 77 % 0 mm
19:01 -0.3 °C -4.1 °C 1009 hPa NW 11.6 km/h 24.1 km/h 76 % 0 mm
19:06 -0.4 °C -4.3 °C 1009 hPa NNW 10.5 km/h 24.1 km/h 75 % 0 mm
19:11 -0.6 °C -4.4 °C 1009 hPa NW 11.4 km/h 18.5 km/h 75 % 0 mm
19:16 -0.6 °C -4.5 °C 1009 hPa NW 6.8 km/h 27.8 km/h 75 % 0 mm
19:21 -0.7 °C -4.6 °C 1009.4 hPa NW 13.8 km/h 19.3 km/h 75 % 0 mm
19:27 -0.7 °C -4.6 °C 1009.4 hPa WNW 10.1 km/h 24.1 km/h 75 % 0 mm
19:32 -0.8 °C -4.7 °C 1009.4 hPa West 10.5 km/h 22.2 km/h 75 % 0 mm
19:37 -0.8 °C -4.6 °C 1009.7 hPa WNW 10.8 km/h 25.9 km/h 76 % 0 mm
19:42 -0.8 °C -4.6 °C 1009.7 hPa NW 12.6 km/h 22.2 km/h 76 % 0 mm
19:47 -0.9 °C -4.7 °C 1009.7 hPa NW 13 km/h 33.3 km/h 76 % 0 mm
19:52 -1 °C -4.7 °C 1009.7 hPa WNW 11.9 km/h 20.4 km/h 76 % 0 mm
19:57 -1.1 °C -4.8 °C 1009.7 hPa NW 10.6 km/h 20.9 km/h 76 % 0 mm
20:02 -1.1 °C -5 °C 1010 hPa WNW 12.6 km/h 29.6 km/h 75 % 0 mm
20:07 -1.2 °C -4.8 °C 1010 hPa NW 12.7 km/h 24.1 km/h 76 % 0 mm
20:12 -1.2 °C -4.9 °C 1010 hPa NW 11.6 km/h 22.2 km/h 76 % 0 mm
20:17 -1.3 °C -4.9 °C 1010 hPa WNW 9 km/h 14.8 km/h 76 % 0 mm
20:22 -1.3 °C -5 °C 1010 hPa WNW 10.6 km/h 22.2 km/h 76 % 0 mm
20:27 -1.4 °C -4.9 °C 1010.4 hPa WNW 11.9 km/h 25.9 km/h 77 % 0 mm
20:32 -1.5 °C -5 °C 1010.4 hPa NW 9 km/h 20.9 km/h 77 % 0 mm
20:37 -1.6 °C -4.9 °C 1010.4 hPa WSW 8.4 km/h 18.5 km/h 78 % 0 mm
20:42 -1.6 °C -4.9 °C 1010.7 hPa West 10.8 km/h 14.8 km/h 78 % 0 mm
20:47 -1.7 °C -5.1 °C 1010.4 hPa NNW 6.6 km/h 13 km/h 78 % 0 mm
20:52 -1.8 °C -5.1 °C 1010.7 hPa WNW 11.9 km/h 16.1 km/h 78 % 0 mm
20:57 -1.8 °C -5 °C 1010.7 hPa NNW 10.5 km/h 22.2 km/h 79 % 0 mm
21:02 -1.9 °C -4.9 °C 1010.7 hPa West 9.8 km/h 18.5 km/h 80 % 0 mm
21:08 -2 °C -4.8 °C 1010.7 hPa NW 8.4 km/h 16.1 km/h 81 % 0 mm
21:13 -2.1 °C -4.9 °C 1011.1 hPa NW 13.2 km/h 27.4 km/h 81 % 0 mm
21:18 -2.2 °C -5.2 °C 1011.1 hPa WNW 16.7 km/h 25.9 km/h 80 % 0 mm
21:23 -2.3 °C -5.5 °C 1011.1 hPa NW 13.8 km/h 22.5 km/h 79 % 0 mm
21:28 -2.4 °C -5.4 °C 1011.4 hPa NW 12.6 km/h 27.8 km/h 80 % 0 mm
21:33 -2.4 °C -5.6 °C 1011.4 hPa NW 14 km/h 24.1 km/h 79 % 0 mm
21:38 -2.6 °C -5.9 °C 1011.4 hPa NNW 10.8 km/h 24.1 km/h 78 % 0 mm
21:43 -2.6 °C -5.9 °C 1011.4 hPa North 10.9 km/h 16.1 km/h 78 % 0 mm
21:48 -2.7 °C -6 °C 1011.4 hPa NW 9 km/h 18.5 km/h 78 % 0 mm
21:53 -2.7 °C -6 °C 1011.7 hPa NW 10 km/h 22.2 km/h 78 % 0 mm
21:58 -2.7 °C -6.2 °C 1011.7 hPa North 9 km/h 20.4 km/h 77 % 0 mm
22:03 -2.7 °C -6.2 °C 1011.7 hPa NNW 6.9 km/h 16.7 km/h 77 % 0 mm
22:08 -2.8 °C -6.3 °C 1011.7 hPa North 7.4 km/h 20.4 km/h 77 % 0 mm
22:13 -2.8 °C -6.5 °C 1011.7 hPa NNW 8.2 km/h 16.1 km/h 76 % 0 mm
22:18 -2.8 °C -6.5 °C 1011.7 hPa WNW 8 km/h 13 km/h 76 % 0 mm
22:23 -2.9 °C -6.3 °C 1012.1 hPa North 6.4 km/h 16.7 km/h 77 % 0 mm
22:28 -2.9 °C -6.3 °C 1011.7 hPa NNW 10.1 km/h 22.2 km/h 77 % 0 mm
22:33 -2.9 °C -6.6 °C 1012.1 hPa North 10.3 km/h 22.2 km/h 76 % 0 mm
22:38 -2.9 °C -6.6 °C 1012.1 hPa North 10 km/h 24.1 km/h 76 % 0 mm
22:44 -2.9 °C -6.8 °C 1012.1 hPa WNW 9 km/h 24.1 km/h 75 % 0 mm
22:49 -2.9 °C -6.8 °C 1012.1 hPa NW 15.3 km/h 20.9 km/h 75 % 0 mm
22:54 -3 °C -7 °C 1012.4 hPa NNW 10.3 km/h 18.5 km/h 74 % 0 mm
22:59 -3 °C -6.8 °C 1012.4 hPa NNW 5.8 km/h 24.1 km/h 75 % 0 mm
23:04 -3 °C -6.6 °C 1012.1 hPa North 9.3 km/h 18.5 km/h 76 % 0 mm
23:09 -3 °C -6.6 °C 1012.4 hPa North 10.6 km/h 16.7 km/h 76 % 0 mm
23:14 -3 °C -6.6 °C 1012.4 hPa NNE 8.9 km/h 18.5 km/h 76 % 0 mm
23:19 -3 °C -6.8 °C 1012.4 hPa NNE 10.6 km/h 16.7 km/h 75 % 0 mm
23:24 -3.1 °C -7.1 °C 1012.4 hPa North 9.7 km/h 20.4 km/h 74 % 0 mm
23:29 -3.1 °C -7.1 °C 1012.4 hPa NW 8.9 km/h 12.9 km/h 74 % 0 mm
23:34 -3.2 °C -7.3 °C 1012.4 hPa NNW 6.9 km/h 16.7 km/h 73 % 0 mm
23:39 -3.2 °C -7.6 °C 1012.4 hPa North 13.8 km/h 22.2 km/h 72 % 0 mm
23:44 -3.3 °C -7.6 °C 1012.4 hPa North 7.6 km/h 9.7 km/h 72 % 0 mm
23:49 -3.3 °C -7.4 °C 1012.4 hPa NW 8.7 km/h 14.8 km/h 73 % 0 mm
23:54 -3.3 °C -7.5 °C 1012.4 hPa North 11.4 km/h 16.7 km/h 73 % 0 mm
23:59 -3.3 °C -7.5 °C 1012.4 hPa NW 7.2 km/h 13 km/h 73 % 0 mm
Crab Meadow Weather
Compliments of Weather Underground - 3 mb

Script developed by  Jim McMurry - jmcmurry@mwt.net Adapted for the template by  Wim van der Kuil - Leuven-Template.eu

Lightning: Lightning can strike the same place twice and sometimes many times. The Empire State Building in New York City is struck an average of 23 times a year. During one thunderstorm it was struck 8 times in 24 minutes.